Back to catalog

COSMOS 2251 DEB

AliveLEO
NORAD 34944·DEBRIS·🇷🇺 Russia

Launched Jun 16, 1993 from Plesetsk Cosmodrome

Loading…

Next Passes (next 24 hours)

TLE

FreshSource: Space-Track

Epoch: Sep 14, 2026, 05:35 UTC

1 34944U 93036ADX 26257.23311179  .00000835  00000-0  35556-3 0  9997
2 34944  73.7463  94.7043 0219198 257.7768  99.8748 14.14831678679780

Track COSMOS 2251 DEB in real time with AllMySat

Download on the App Store